Tracking 25410 objects as of 21-Jan-2022
HD Live streaming from Space Station
objects crossing your sky now

AUREOLE 2

Track AUREOLE 2 now!
10-day predictions
AUREOLE 2 is classified as:


NORAD ID: 7003
Int'l Code: 1973-107A
Perigee: 371.3 km
Apogee: 890.4 km
Inclination: 73.9 °
Period: 97.2 minutes
Semi major axis: 7001 km
RCS: 2.1042 m2 (large)
Launch date: December 26, 1973
Source: France (FR)
Launch site: PLESETSK MISSILE AND SPACE COMPLEX (PKMTR)
aabbcc
Your satellite tracking list
Your tracking list is empty




NASA's NSSDC Master Catalog

Two Line Element Set (TLE):
1  7003U 73107A   22021.16690842  .00003825  00000-0  14327-3 0  9999
2  7003  73.9269 297.6486 0370719 259.8364  96.0814 14.81781628461447
Source of the keplerian elements: AFSPC